{"data":{"norad_id":46725,"epoch":"2026-05-24T22:27:06.626304Z","epoch_age_seconds":77662,"freshness":"FRESH","line1":"1 46725U 20073BH  26144.93549336  .00063085  00000+0  58953-3 0  9999","line2":"2 46725  53.0481 224.6531 0005844 312.1277  47.9240 15.66689745309111","mean_motion":15.66689745,"eccentricity":0.0005844,"inclination_deg":53.0481,"raan_deg":224.6531,"arg_perigee_deg":312.1277,"mean_anomaly_deg":47.924,"bstar":0.00058953,"rev_number":30911,"period_min":91.913539652358,"perigee_km":364.44077925352,"apogee_km":372.32611235058,"semimajor_km":6746.520445802,"source":"CELESTRAK","updated_at":"2026-05-25T13:38:16.518376Z"}}